This demonstration page uses our WeatherBlox Daily Observations layout. Learn more.

Left ArrowRight Arrow

38.20091, -84.87328

Hourly Observations for August 29, 2016

Temp ( °F °C ) Dew Point ( °F °C ) Humidity (%) Winds ( mph kmh ) Pressure ( in mb ) Visibility ( mi km ) Precip ( " mm )
12:53 am 00:53 Clear 72 22.2 68 20 87 87 Calm 30.14 1021 10 16 0.00 0.00
1:53 am 01:53 Clear 72 22.2 68 20 87 87 Calm 30.14 1021 10 16 0.00 0.00
2:53 am 02:53 Clear 71 21.7 68 20 90 90 Calm 30.13 1020 9 14 0.00 0.00
3:53 am 03:53 Mostly Clear with Mist and Fog 70 21.1 68 20 93 93 Calm 30.14 1021 6 10 0.00 0.00
4:53 am 04:53 Mostly Clear 70 21.1 67 19.4 90 90 N 6 9 30.15 1021 7 11 0.00 0.00
5:02 am 05:02 Mostly Cloudy with Mist and Fog 70 21.1 68 20 93 93 N 5 7 30.18 1022 3 4 0.00 0.00
5:07 am 05:07 Mostly Cloudy with Mist and Fog 70 21.1 68 20 93 93 N 5 7 30.18 1022 1 2 0.00 0.00
5:15 am 05:15 Mostly Cloudy with Mist and Fog 70 21.1 68 20 93 93 N 5 7 30.18 1022 1 1 0.00 0.00
5:26 am 05:26 Cloudy with Mist and Fog 70 21.1 68 20 93 93 Calm 30.18 1022 1 2 0.00 0.00
5:32 am 05:32 Cloudy with Mist and Fog 70 21.1 68 20 93 93 N 3 6 30.18 1022 3 5 0.00 0.00
5:53 am 05:53 Cloudy with Mist and Fog 70 21.1 67 19.4 90 90 N 3 6 30.16 1021 6 10 0.00 0.00
6:12 am 06:12 Partly Cloudy 70 21.1 67 19.4 90 90 Calm 30.18 1022 7 11 0.00 0.00
6:53 am 06:53 Clear with Mist and Fog 69 20.6 66 18.9 90 90 Calm 30.16 1021 6 10 0.00 0.00
7:53 am 07:53 Sunny 70 21.1 67 19.4 90 90 Calm 30.17 1022 7 11 0.00 0.00
8:53 am 08:53 Sunny 73 22.8 68 20 84 84 N 3 6 30.18 1022 10 16 0.00 0.00
9:53 am 09:53 Sunny 77 25 68 20 74 74 VRB 3 6 30.20 1023 10 16 0.00 0.00
10:53 am 10:53 Sunny 81 27.2 69 20.6 67 67 VRB 3 6 30.20 1023 10 16 0.00 0.00
11:53 am 11:53 Sunny 84 28.9 69 20.6 61 61 N 8 13 30.19 1022 10 16 0.00 0.00
12:53 pm 12:53 Sunny 87 30.6 72 22.2 61 61 VRB 6 9 30.18 1022 10 16 0.00 0.00
1:53 pm 13:53 Sunny 89 31.7 71 21.7 55 55 VRB 5 7 30.17 1022 10 16 0.00 0.00
2:53 pm 14:53 Mostly Sunny 91 32.8 70 21.1 50 50 VRB 5 7 30.15 1021 10 16 0.00 0.00
3:41 pm 15:41 Partly Cloudy with Nearby Thunderstorms 91 32.8 69 20.6 49 49 NNE 6 9 30.09 1019 10 16 0.00 0.00
3:53 pm 15:53 Mostly Sunny 92 33.3 70 21.1 49 49 NNE 6 9 30.12 1020 10 16 0.00 0.00
4:00 pm 16:00 Partly Cloudy with Nearby Thunderstorms 93 33.9 70 21.1 47 47 NE 9 15 30.09 1019 10 16 0.00 0.00
4:09 pm 16:09 Mostly Cloudy with Thunderstorms 90 32.2 69 20.6 50 50 N 17 28 30.12 1020 10 16 0.00 0.00
4:32 pm 16:32 Cloudy with Strong Thunderstorms 75 23.9 68 20 79 79 NNW 8 13 30.12 1020 2 3 0.09 2.29
4:40 pm 16:40 Cloudy with Thunderstorms 76 24.4 69 20.6 79 79 WNW 3 6 30.12 1020 3 5 0.10 2.54
4:53 pm 16:53 Partly Cloudy 77 25 70 21.1 79 79 N 5 7 30.13 1020 10 16 0.10 2.54
5:53 pm 17:53 Sunny 83 28.3 70 21.1 65 65 N 6 9 30.11 1020 10 16 0.00 0.00
6:53 pm 18:53 Sunny 83 28.3 71 21.7 67 67 NNW 5 7 30.11 1020 10 16 0.00 0.00
7:53 pm 19:53 Sunny 80 26.7 73 22.8 79 79 Calm 30.11 1020 10 16 0.00 0.00
8:53 pm 20:53 Clear 80 26.7 72 22.2 76 76 N 3 6 30.10 1019 10 16 0.00 0.00
9:53 pm 21:53 Clear 77 25 72 22.2 85 85 Calm 30.13 1020 10 16 0.00 0.00
10:53 pm 22:53 Clear 77 25 73 22.8 88 88 N 5 7 30.12 1020 10 16 0.00 0.00
11:53 pm 23:53 Clear 75 23.9 71 21.7 88 88 Calm 30.13 1020 10 16 0.00 0.00

Powered by AerisWeather